Location: Unspecified
(0.0000°N, 0.0000°E)
Time: 18:45:11
(UTC+00:00)

CSTB 1 - Visible Passes

Search period start: 17 May 2026 00:00
Search period end: 27 May 2026 00:00
Orbit: 607 x 697 km, 98.4° (Epoch: 16 May)

Date Brightness Start Highest point End Pass type
(mag) Time Alt. Az. Time Alt. Az. Time Alt. Az.
17 May ? 05:09:38 10° NNE 05:14:09 46° ESE 05:18:41 10° S visible
19 May ? 04:29:45 10° ENE 04:31:46 13° ESE 04:33:47 10° SE visible
19 May ? 18:18:42 10° SSW 18:21:42 19° WSW 18:24:43 10° WNW visible
20 May ? 04:54:42 10° NE 04:58:44 28° ESE 05:02:47 10° SSE visible
21 May ? 05:21:03 10° NNE 05:25:44 65° ESE 05:30:25 10° S visible
23 May ? 04:40:11 10° ENE 04:43:18 18° ESE 04:46:25 10° SE visible
23 May ? 18:31:06 10° SW 18:33:10 13° WSW 18:35:16 10° WNW visible
24 May ? 05:05:53 10° NE 05:10:17 39° ESE 05:14:39 10° S visible
26 May ? 04:27:05 10° E 04:27:51 10° ESE 04:28:36 10° ESE visible
